Regional Weather Roundup
Issued by NWS

Home | Current Version | Previous Version | Graphics & Text | Print | Product List | Glossary On
Versions: 1 2 3 4 5 6 7 8 9 10 11 12 13 14 15 16 17 18 19 20 21 22 23 24 25 26 27 28 29 30 31 32 33 34 35 36 37 38 39 40 41 42 43 44 45 46 47 48 49 50
000
ASUS45 KBOU 011707
RWRCO

WEATHER ROUNDUP FOR COLORADO
NATIONAL WEATHER SERVICE DENVER/BOULDER CO
1100 AM MDT WED APR 01 2015

NOTE: "FAIR" INDICATES FEW OR NO CLOUDS BELOW 12000 FEET WITH NO
SIGNIFICANT WEATHER AND/OR OBSTRUCTIONS TO VISIBILITY.

COZ001>005-013-030-031-011800-
...NORTHWEST COLORADO...

CITY           SKY/WX    TMP DP  RH WIND       PRES   REMARKS
CRAIG          CLOUDY    50  25  37 NW14      29.96R
HAYDEN         MOSUNNY   50  21  32 W20G26    29.94R
MEEKER         CLOUDY    53  28  38 CALM      29.94R
MOUNT WERNER   NOT AVBL
STEAMBOAT SPGS MOSUNNY   52  26  35 SW15G21   29.91R
WALDEN         CLOUDY    50  23  34 W13G18    29.91S
$$

COZ006>008-011-011800-
...WEST CENTRAL VALLEYS...

CITY           SKY/WX    TMP DP  RH WIND       PRES   REMARKS
GRAND JUNCTION SUNNY     65  24  21 NW16G22   29.86S
MONTROSE       SUNNY     66  23  19 W21       29.92R
EAGLE          MOSUNNY   55  21  26 W18G24    29.89F
RIFLE          PTSUNNY   58  27  30 NW6       29.87S
DELTA          NOT AVBL
NUCLA          SUNNY     64  25  22 W14G21    29.97F
$$

COZ017>023-064>068-011800-
...SOUTHWEST COLORADO...

CITY           SKY/WX    TMP DP  RH WIND       PRES   REMARKS
DURANGO        SUNNY     60  29  30 W14G23    30.00F
CORTEZ         SUNNY     64  27  24 SW16      29.98F
PAGOSA SPRINGS SUNNY     56  23  28 SW14      30.04F
TELLURIDE      PTSUNNY   48  20  33 SW13G23   30.08F
WOLF CREEK PAS SUNNY     34  21  60 SW21G32   30.18S WCI  22
$$

COZ009-010-012-014-032>034-037-058>063-011800-
...CENTRAL COLORADO...

CITY           SKY/WX    TMP DP  RH WIND       PRES   REMARKS
ASPEN          PTSUNNY   54  22  28 S9G21     29.94F
BUENA VISTA    MOSUNNY   57  15  18 SW23G31   29.94S
COPPER MTN     PTSUNNY   36  18  48 SW8G23    30.08S
BERTHOUD PASS  PTSUNNY   30  23  74 W22G31    30.08R WCI  17
COTTONWOOD PAS MOSUNNY   48  12  23 SW20G36   30.00F
GUNNISON       MOSUNNY   55  25  30 SW15G23   29.99F
KREMMLING      PTSUNNY   55  19  24 W13G20    29.90R
LEADVILLE      NOT AVBL
SALIDA         MOSUNNY   61  18  19 W17G30    30.01S
SUNLIGHT       CLOUDY    43  23  45 CALM      30.07F
WILKERSON PASS SUNNY     45  14  29 SW10G23   30.07F
$$

COZ069>075-011800-
...SAN LUIS VALLEY/SANGRE DE CRISTO MOUNTAINS...

CITY           SKY/WX    TMP DP  RH WIND       PRES   REMARKS
ALAMOSA        SUNNY     61  20  20 SW18      29.96F
LA VETA PASS   MOSUNNY   46  23  39 S10G24    30.06S
SAGUACHE       SUNNY     54  25  32 S9        29.98F
$$

COZ035-036-038>040-011800-
...NORTHERN COLORADO FRONT RANGE...

CITY           SKY/WX    TMP DP  RH WIND       PRES   REMARKS
DENVER INTL AP PTSUNNY   68  22  17 NW15      29.78S
DMNS CITY PARK   N/A     68  19  15 E3G9      29.77F
AURORA         PTSUNNY   66  21  18 W5        29.80S
FRONT RANGE AP PTSUNNY   68  27  21 W12       29.80S
ERIE MUNI ARPT MOSUNNY   69  18  14 NW9       29.77S
BOULDER MUN AP MOSUNNY   68  21  17 SW10G16   29.77S
CENTENNIAL     PTSUNNY   65  20  17 CALM      29.80S
BROOMFIELD     PTSUNNY   66  21  18 NW12      29.79S
FORT COLLINS   MOSUNNY   70  28  21 SW13G18   29.76F
LONGMONT       MOSUNNY   73  22  15 SW10G20   29.78S
$$

COZ041-046-047-076>085-087-088-011800-
...PIKES PEAK/PALMER DIVIDE AND SOUTHERN FOOTHILLS...

CITY           SKY/WX    TMP DP  RH WIND       PRES   REMARKS
COLO. SPRINGS  PTSUNNY   66  20  17 S7G16     29.85F
A. F. ACADEMY  MOSUNNY   65  15  14 W18G26    29.85F
ELLICOTT       NOT AVBL
FALCON         MOSUNNY   64  15  15 W9G17     29.88F
FORT CARSON    MOSUNNY   68  22  18 VRB1      29.82F
LIMON          CLOUDY    68  24  19 W13       29.79S
MONUMENT HILL  MOSUNNY   63  19  19 W8        29.87S
TRINIDAD       CLOUDY    65  26  23 SW14      29.87S
$$

COZ042>045-048>051-090-091-011800-
...NORTHEAST COLORADO...

CITY           SKY/WX    TMP DP  RH WIND       PRES   REMARKS
GREELEY ARPT   MOSUNNY   72  27  18 W13       29.73F
AKRON          PTSUNNY   69  26  20 NW14      29.75S
BURLINGTON     MOSUNNY   77  25  14 W21G28    29.73S
WRAY           MOSUNNY   75  25  15 NW14G20   29.70F
STERLING       PTSUNNY   72  30  21 N20G26    29.71S
HOLYOKE        MOSUNNY   79  28  15 NW17G28   29.69S
FORT MORGAN    PTSUNNY   72  24  16 NW13G23   29.75S
$$

COZ086-089-092>099-011800-
...SOUTHEAST COLORADO...

CITY           SKY/WX    TMP DP  RH WIND       PRES   REMARKS
PUEBLO         PTSUNNY   73  23  15 W21G26    29.79F
LA JUNTA       CLOUDY    76  26  15 W16G23    29.77F
LAMAR          PTSUNNY   74  27  17 W12       29.72F
SPRINGFIELD      N/A     80  22  11 NW14G23   29.76F
$$



USA.gov is the U.S. government's official web portal to all federal, state and local government web resources and services.